sat.trackr.live / text

‹ back to catalog

STARLINK-34469

NORAD 64615 · 2025-137X

PAYLOAD ACTIVE UNKNOWN

§ Identity

Operator
Country
US
Launch date
2025-06-25
Launch site
AFETR
Launch vehicle
Mass (kg)
RCS (m²)

Purposes: comms

External: N2YO · Heavens-Above · Gunter

§ Orbital elements

Epoch: 2026-05-24T22:43:41.637216Z

Period
94.11 min
Inclination
53.1611°
Eccentricity
0.0001197
Mean motion
15.30200499 rev/d
Perigee alt
474.4 km
Apogee alt
476.0 km
Semi-major
6,853.4 km
B*
6.3328e-4
RAAN
340.7823°
Arg perigee
93.2239°
Mean anomaly
266.8899°
Rev number
5,241

§ Raw data

STARLINK-344691 64615U 25137X   26144.94700969  .00018443  00000+0  63328-3 0  99952 64615  53.1611 340.7823 0001197  93.2239 266.8899 15.30200499 52417

JSON: /api/v1/satellites/64615 · /tle

For live sub-satellite position, see the globe view (requires WebGL).

§ Visibility from observer

Set your observer location to see the next 7 days of passes ≥ 10°. The values pass through the URL so the page stays shareable.

No JS? Fill the form by hand. The geolocation button needs JavaScript.